Location: Althorst
(53.6379°N, 10.7715°E)
Time: 07:57:32
(UTC+00:00)

METEOR-M - Pass Details

Date: 10 December 2019
Orbit: 817 x 818 km, 98.4° (Epoch: 21 January)

Event Time Altitude Azimuth Distance (km) Brightness Sun altitude
Rises 15:25:38 0° 162° (SSE) 3,335 7.5 -4.3°
Reaches altitude 10° 15:27:58 10° 162° (SSE) 2,407 6.8 -4.5°
Maximum altitude 15:33:18 89° 80° (E) 826 4.2 -5.2°
Drops below altitude 10° 15:38:42 10° 345° (NNW) 2,425 6.4 -5.9°
Sets 15:41:03 0° 345° (NNW) 3,361 7.2 -6.2°
